N9BID Weather Reports


time (UTC)temp
F
wind
direction
speed
knots
gust
knots
rain 1hr
in
rain 24hr
in
rain mn
in
humidity
%
barometer
mb
20260906172834 77 177 0.9 2.6 0.00 0.00 0.00 69 1020.8
20260906172330 78 152 2.6 5.2 0.00 0.00 0.00 68 1021.2
20260906171825 77 170 0.9 2.6 0.00 0.00 0.00 70 1021.1
20260906171320 77 187 0.0 2.6 0.00 0.00 0.00 67 1020.9
20260906170816 77 168 1.7 5.2 0.00 0.00 0.00 68 1021.1
20260906170312 76 163 1.7 2.6 0.00 0.00 0.00 67 1021.2
20260906165807 77 174 2.6 6.1 0.00 0.00 0.00 69 1021.3
20260906165306 78 155 1.7 6.1 0.00 0.00 0.00 66 1021.2
20260906164801 77 9 0.9 1.7 0.00 0.00 0.00 67 1021.2
20260906164255 76 195 1.7 2.6 0.00 0.00 0.00 68 1021.4
20260906163752 77 182 0.9 7.0 0.00 0.00 0.00 69 1021.4
20260906163248 77 97 0.9 2.6 0.00 0.00 0.00 69 1021.4
20260906162745 77 152 0.0 0.9 0.00 0.00 0.00 71 1021.2
20260906162234 77 202 1.7 1.7 0.00 0.00 0.00 70 1021.3
20260906161734 76 161 1.7 2.6 0.00 0.00 0.00 71 1021.2
20260906161233 75 175 0.9 2.6 0.00 0.00 0.00 70 1021.1
20260906160732 75 209 2.6 3.5 0.00 0.00 0.00 70 1021.2
20260906160231 75 144 3.5 5.2 0.00 0.00 0.00 69 1021.0
20260906155729 75 172 1.7 5.2 0.00 0.00 0.00 72 1021.2
20260906155224 74 179 1.7 1.7 0.00 0.00 0.00 72 1021.2
20260906154719 74 142 3.5 5.2 0.00 0.00 0.00 72 1021.2
20260906154214 74 198 1.7 3.5 0.00 0.00 0.00 73 1021.2
20260906153712 74 130 0.9 5.2 0.00 0.00 0.00 76 1021.1
20260906153207 75 114 0.9 0.9 0.00 0.00 0.00 74 1021.4
20260906152703 74 181 0.0 2.6 0.00 0.00 0.00 75 1021.5
20260906152156 74 162 0.0 2.6 0.00 0.00 0.00 77 1021.4
20260906151651 74 173 1.7 1.7 0.00 0.00 0.00 77 1021.4
20260906151147 73 172 0.0 1.7 0.00 0.00 0.00 78 1021.3
20260906150642 73 130 0.9 3.5 0.00 0.00 0.00 77 1021.0
20260906150137 73 134 1.7 2.6 0.00 0.00 0.00 77 1021.1
20260906145636 72 206 1.7 3.5 0.00 0.00 0.00 79 1020.9
20260906145131 72 170 0.0 2.6 0.00 0.00 0.00 80 1020.9
20260906144631 72 157 1.7 1.7 0.00 0.00 0.00 81 1020.8
20260906144127 71 164 1.7 3.5 0.00 0.00 0.00 81 1020.9
20260906143626 71 152 0.9 0.9 0.00 0.00 0.00 83 1021.0
20260906143124 71 202 2.6 5.2 0.00 0.00 0.00 83 1021.1
20260906142622 70 160 0.9 0.9 0.00 0.00 0.00 84 1020.8
20260906142118 70 160 0.0 1.7 0.00 0.00 0.00 85 1020.9
20260906141616 70 164 0.9 1.7 0.00 0.00 0.00 85 1020.8
20260906141112 69 165 0.0 1.7 0.00 0.00 0.00 86 1020.9
20260906140611 69 160 0.9 1.7 0.00 0.00 0.00 87 1020.9
20260906140106 67 152 0.9 1.7 0.00 0.00 0.00 89 1021.0
20260906135603 66 119 0.0 3.5 0.00 0.00 0.00 92 1020.8
20260906135059 66 156 0.9 0.9 0.00 0.00 0.00 94 1020.8
20260906134554 66 153 0.0 0.9 0.00 0.00 0.00 94 1021.0
20260906134049 65 140 0.0 2.6 0.00 0.00 0.00 94 1020.7
20260906133545 65 83 1.7 2.6 0.00 0.00 0.00 94 1020.9
20260906133040 65 139 0.0 1.7 0.00 0.00 0.00 95 1020.8
20260906132535 65 178 0.0 1.7 0.00 0.00 0.00 96 1020.8
20260906132030 65 154 0.0 2.6 0.00 0.00 0.00 96 1020.9
20260906131526 65 106 0.9 2.6 0.00 0.00 0.00 96 1020.9
20260906131021 65 166 0.9 1.7 0.00 0.00 0.00 96 1020.8
20260906130520 64 137 0.0 0.9 0.00 0.00 0.00 97 1020.9
20260906130016 64 165 0.0 0.9 0.00 0.00 0.00 99 1021.0
20260906125513 63 167 0.0 0.0 0.00 0.00 0.00 99 1020.7
20260906125013 62 154 0.9 0.9 0.00 0.00 0.00 99 1020.8
20260906124508 62 145 0.0 0.0 0.00 0.00 0.00 99 1020.7
20260906124003 61 162 0.9 1.7 0.00 0.00 0.00 99 1020.8
20260906123456 61 108 0.9 1.7 0.00 0.00 0.00 99 1020.6
20260906122956 61 139 0.0 1.7 0.00 0.00 0.00 99 1020.4
20260906122451 60 95 0.0 0.9 0.00 0.00 0.00 99 1020.5
20260906121948 60 149 0.0 0.0 0.00 0.00 0.00 99 1020.3
20260906121444 60 162 0.0 0.0 0.00 0.00 0.00 99 1020.4
20260906120940 60 162 0.0 0.0 0.00 0.00 0.00 99 1020.3
20260906120435 60 159 0.0 0.0 0.00 0.00 0.00 99 1020.4
20260906115931 60 150 0.0 0.0 0.00 0.00 0.00 99 1020.5
20260906115426 60 136 0.0 0.0 0.00 0.00 0.00 99 1020.5
20260906114921 60 144 0.0 0.9 0.00 0.00 0.00 99 1020.5
20260906114420 60 87 0.0 0.0 0.00 0.00 0.00 99 1020.4
20260906113917 59 107 0.0 0.0 0.00 0.00 0.00 99 1020.5
20260906113415 59 143 0.0 0.0 0.00 0.00 0.00 99 1020.5
20260906112911 59 168 0.0 0.0 0.00 0.00 0.00 99 1020.4
20260906112406 60 168 0.0 0.0 0.00 0.00 0.00 99 1020.6
20260906111901 60 168 0.0 0.0 0.00 0.00 0.00 99 1020.3
20260906111401 60 168 0.0 0.0 0.00 0.00 0.00 99 1020.4
20260906110856 60 168 0.0 0.0 0.00 0.00 0.00 99 1019.9
20260906110351 60 166 0.0 0.0 0.00 0.00 0.00 99 1020.1
20260906105850 60 175 0.0 0.0 0.00 0.00 0.00 99 1020.2
20260906105346 60 159 0.0 0.0 0.00 0.00 0.00 99 1019.9
20260906104842 60 163 0.0 0.0 0.00 0.00 0.00 99 1019.8
20260906104340 61 159 0.0 0.0 0.00 0.00 0.00 99 1020.1
20260906103839 60 166 0.0 0.0 0.00 0.00 0.00 99 1019.9
20260906103337 60 172 0.0 0.0 0.00 0.00 0.00 99 1019.8
20260906102834 61 172 0.0 0.0 0.00 0.00 0.00 99 1020.0
20260906102332 61 166 0.0 0.0 0.00 0.00 0.00 99 1019.8
20260906101828 61 152 0.0 1.7 0.00 0.00 0.00 99 1019.6
20260906101323 62 155 0.0 1.7 0.00 0.00 0.00 99 1019.5
20260906100819 62 80 0.9 1.7 0.00 0.00 0.00 99 1019.3
20260906100317 61 80 0.0 0.9 0.00 0.00 0.00 99 1019.2
20260906095814 62 155 0.0 0.0 0.00 0.00 0.00 99 1019.2
20260906095309 62 149 0.0 0.0 0.00 0.00 0.00 99 1019.2
20260906094808 62 94 0.0 0.9 0.00 0.00 0.00 99 1019.0
20260906094303 62 160 0.0 0.0 0.00 0.00 0.00 99 1019.1
20260906093759 62 148 0.0 0.0 0.00 0.00 0.00 99 1019.3
20260906093254 62 157 0.0 0.0 0.00 0.00 0.00 99 1019.1
20260906092749 63 152 0.0 0.0 0.00 0.00 0.00 99 1019.3
20260906092244 63 133 0.0 0.9 0.00 0.00 0.00 99 1019.5
20260906091740 63 107 0.0 0.9 0.00 0.00 0.00 99 1019.4
20260906091235 63 165 0.0 0.0 0.00 0.00 0.00 99 1019.5
20260906090732 63 162 0.0 0.0 0.00 0.00 0.00 99 1019.8
20260906090231 63 146 0.0 0.0 0.00 0.00 0.00 99 1019.9
20260906085730 63 153 0.0 0.0 0.00 0.00 0.00 99 1019.8
20260906085229 63 150 0.0 0.0 0.00 0.00 0.00 99 1019.9
20260906084724 64 138 0.9 1.7 0.00 0.00 0.00 99 1019.6
20260906084225 64 149 0.0 1.7 0.00 0.00 0.00 99 1019.6
20260906083720 64 90 0.9 0.9 0.00 0.00 0.00 99 1019.8
20260906083215 64 169 0.0 0.0 0.00 0.00 0.00 99 1019.6
20260906082710 64 160 0.0 0.9 0.00 0.00 0.00 99 1019.8
20260906082205 64 140 0.9 0.9 0.00 0.00 0.00 99 1019.5
20260906081701 64 154 0.0 1.7 0.00 0.00 0.00 99 1019.6
20260906081156 64 165 0.0 0.0 0.00 0.00 0.00 99 1019.4
20260906080652 64 137 0.0 0.9 0.00 0.00 0.00 99 1019.5
20260906080148 64 160 0.0 0.9 0.00 0.00 0.00 99 1019.8
20260906075648 63 174 0.0 0.0 0.00 0.00 0.00 99 1019.4
20260906075142 64 175 0.0 0.0 0.00 0.00 0.00 99 1019.6
20260906074638 64 165 0.0 0.0 0.00 0.00 0.00 99 1019.5
20260906074137 63 145 0.0 0.0 0.00 0.00 0.00 99 1019.8
20260906073631 63 172 0.0 0.0 0.00 0.00 0.00 99 1019.6
20260906073127 64 168 0.0 0.0 0.00 0.00 0.00 99 1019.2
20260906072622 64 158 0.0 0.0 0.00 0.00 0.00 99 1019.4
20260906072118 64 168 0.0 0.0 0.00 0.00 0.00 99 1019.9
20260906071614 64 168 0.0 0.0 0.00 0.00 0.00 99 1019.8
20260906071109 63 171 0.0 0.0 0.00 0.00 0.00 99 1019.8
20260906070606 63 165 0.0 0.0 0.00 0.00 0.00 99 1019.6
20260906070100 63 174 0.0 0.0 0.00 0.00 0.00 99 1019.8
20260906065600 63 182 0.0 0.9 0.00 0.00 0.00 99 1020.0
20260906065056 63 168 0.0 0.0 0.00 0.00 0.00 99 1020.0
20260906064551 63 172 0.0 0.0 0.00 0.00 0.00 99 1020.1
20260906064046 63 172 0.0 0.0 0.00 0.00 0.00 99 1020.1
20260906063541 64 171 0.0 0.0 0.00 0.00 0.00 99 1020.0
20260906063032 64 167 0.0 0.0 0.00 0.00 0.00 99 1019.9
20260906062527 64 150 0.0 0.0 0.00 0.00 0.00 99 1019.6
20260906062026 64 162 0.0 0.9 0.00 0.00 0.00 99 1019.6
20260906061524 63 172 0.0 0.0 0.00 0.00 0.00 99 1020.0
20260906061022 63 172 0.0 0.0 0.00 0.00 0.00 99 1020.0
20260906060519 63 172 0.0 0.0 0.00 0.00 0.00 99 1020.1
20260906060016 63 172 0.0 0.0 0.00 0.00 0.00 99 1019.8
20260906055512 63 172 0.0 0.0 0.00 0.00 0.00 99 1019.6
20260906055007 64 169 0.0 0.0 0.00 0.00 0.00 99 1019.5
20260906054507 64 169 0.0 0.0 0.00 0.00 0.00 99 1019.5
20260906054002 64 161 0.0 0.0 0.00 0.00 0.00 99 1019.8
20260906053459 64 170 0.0 0.0 0.00 0.00 0.00 99 1019.5
20260906052954 64 170 0.0 0.0 0.00 0.00 0.00 99 1019.6
20260906052450 63 170 0.0 0.0 0.00 0.00 0.00 99 1019.9
20260906051947 63 170 0.0 0.0 0.00 0.00 0.00 99 1019.8
20260906051442 63 175 0.0 0.0 0.00 0.00 0.00 99 1019.4
20260906050937 63 175 0.0 0.0 0.00 0.00 0.00 99 1019.4
20260906050437 64 171 0.0 0.0 0.00 0.00 0.00 99 1019.5
20260906045936 64 168 0.0 0.0 0.00 0.00 0.00 99 1019.4
20260906045435 64 164 0.0 0.0 0.00 0.00 0.00 99 1019.5
20260906044932 63 175 0.0 0.0 0.00 0.00 0.00 99 1019.6
20260906044431 63 176 0.0 0.0 0.00 0.00 0.00 99 1019.6
20260906043927 63 177 0.0 0.0 0.00 0.00 0.00 99 1019.5
20260906043423 64 175 0.0 0.0 0.00 0.00 0.00 99 1019.3
20260906042918 64 171 0.0 0.0 0.00 0.00 0.00 99 1019.2
20260906042417 64 165 0.0 0.0 0.00 0.00 0.00 99 1019.3
20260906041912 64 165 0.0 0.0 0.00 0.00 0.00 99 1019.3
20260906041409 64 165 0.0 0.0 0.00 0.00 0.00 99 1019.1
20260906040903 63 149 0.0 0.0 0.00 0.00 0.00 99 1019.1
20260906040358 63 175 0.0 0.9 0.00 0.00 0.00 99 1018.8
20260906035853 64 175 0.0 0.0 0.00 0.00 0.00 99 1019.0
20260906035349 64 153 0.0 0.0 0.00 0.00 0.00 99 1019.1
20260906034843 64 171 0.0 0.0 0.00 0.00 0.00 99 1019.0
20260906034338 64 171 0.0 0.0 0.00 0.00 0.00 99 1019.0
20260906033834 64 171 0.0 0.0 0.00 0.00 0.00 99 1019.1
20260906033333 64 171 0.0 0.0 0.00 0.00 0.00 99 1018.7
20260906032830 64 171 0.0 0.0 0.00 0.00 0.00 99 1018.6
20260906032326 64 171 0.0 0.0 0.00 0.00 0.00 99 1018.5
20260906031821 65 168 0.0 0.0 0.00 0.00 0.00 99 1018.6
20260906031316 64 168 0.0 0.0 0.00 0.00 0.00 99 1018.4
20260906030816 64 175 0.0 0.0 0.00 0.00 0.00 99 1018.7
20260906030311 65 175 0.0 0.0 0.00 0.00 0.00 99 1018.6
20260906025811 65 174 0.0 0.0 0.00 0.00 0.00 99 1018.6
20260906025306 65 175 0.0 0.0 0.00 0.00 0.00 99 1018.4
20260906024804 66 175 0.0 0.0 0.00 0.00 0.00 99 1018.3
20260906024303 65 182 0.0 0.9 0.00 0.00 0.00 99 1018.1
20260906023759 65 181 0.0 0.9 0.00 0.00 0.00 99 1018.2
20260906023254 66 183 0.0 0.0 0.00 0.00 0.00 99 1018.1
20260906022750 66 177 0.0 0.0 0.00 0.00 0.00 99 1018.0
20260906022245 66 176 0.0 0.0 0.00 0.00 0.00 99 1018.0
20260906021741 67 170 0.0 0.0 0.00 0.00 0.00 99 1017.9
20260906021240 67 169 0.0 0.9 0.00 0.00 0.00 99 1017.9
20260906020734 68 173 0.0 0.0 0.00 0.00 0.00 99 1017.8
20260906020229 68 174 0.0 0.0 0.00 0.00 0.00 99 1017.7
20260906015723 68 156 0.0 1.7 0.00 0.00 0.00 99 1018.0
20260906015221 68 163 0.0 0.9 0.00 0.00 0.00 99 1017.9
20260906014717 68 174 0.0 0.0 0.00 0.00 0.00 99 1017.9
20260906014212 68 169 0.0 0.0 0.00 0.00 0.00 99 1017.9
20260906013708 68 164 0.0 0.0 0.00 0.00 0.00 98 1017.6
20260906013209 69 156 0.0 0.0 0.00 0.00 0.00 98 1017.6
20260906012704 69 165 0.0 0.0 0.00 0.00 0.00 98 1017.7
20260906012203 69 163 0.0 0.0 0.00 0.00 0.00 98 1017.6
20260906011659 69 150 0.0 0.0 0.00 0.00 0.00 97 1017.3
20260906011154 69 172 0.0 0.0 0.00 0.00 0.00 97 1017.4
20260906010649 70 175 0.0 0.0 0.00 0.00 0.00 96 1017.6
20260906010145 70 174 0.0 0.0 0.00 0.00 0.00 95 1017.2
20260906005645 70 166 0.0 0.0 0.00 0.00 0.00 95 1017.3
20260906005144 71 164 0.0 1.7 0.00 0.00 0.00 94 1017.2
20260906004643 71 159 0.0 0.0 0.00 0.00 0.00 94 1017.3
20260906004138 71 162 0.0 0.0 0.00 0.00 0.00 93 1017.4
20260906003633 72 162 0.0 0.0 0.00 0.00 0.00 92 1017.5
20260906003129 72 163 0.0 0.9 0.00 0.00 0.00 92 1017.3
20260906002624 73 166 0.0 0.9 0.00 0.00 0.00 91 1017.5
20260906002119 73 178 0.0 0.9 0.00 0.00 0.00 90 1017.6
20260906001615 73 156 0.9 0.9 0.00 0.00 0.00 89 1017.3
20260906001114 74 165 0.0 0.0 0.00 0.00 0.00 87 1017.2
20260906000611 74 164 0.0 0.9 0.00 0.00 0.00 86 1017.2
20260906000106 75 169 0.0 0.0 0.00 0.00 0.00 83 1017.1
20260905235604 75 168 0.0 0.9 0.00 0.00 0.00 82 1017.1
20260905235100 76 157 0.0 0.9 0.00 0.00 0.00 81 1016.8
20260905234555 76 168 0.0 0.0 0.00 0.00 0.00 80 1017.2
20260905234050 77 163 0.9 0.9 0.00 0.00 0.00 78 1017.4
20260905233544 77 170 0.0 0.0 0.00 0.00 0.00 77 1017.3
20260905233039 77 148 0.9 0.9 0.00 0.00 0.00 78 1017.3
20260905232534 77 167 0.0 0.9 0.00 0.00 0.00 76 1017.5
20260905232030 78 154 0.0 0.9 0.00 0.00 0.00 76 1017.5
20260905231525 77 80 0.9 1.7 0.00 0.00 0.00 75 1017.3
20260905231021 77 164 0.9 1.7 0.00 0.00 0.00 76 1017.5
20260905230520 78 164 0.9 1.7 0.00 0.00 0.00 77 1017.5
20260905230019 78 167 0.0 0.9 0.00 0.00 0.00 75 1017.6
20260905225514 77 123 0.9 2.6 0.00 0.00 0.00 77 1017.5
20260905225009 77 115 1.7 5.2 0.00 0.00 0.00 78 1017.7
20260905224504 77 51 0.9 2.6 0.00 0.00 0.00 76 1017.5
20260905224003 77 157 0.9 2.6 0.00 0.00 0.00 75 1017.6
20260905223501 78 62 3.5 3.5 0.00 0.00 0.00 75 1017.4
20260905222956 77 123 0.9 0.9 0.00 0.00 0.00 76 1017.7
20260905222455 77 125 0.9 2.6 0.00 0.00 0.00 76 1017.6
20260905221951 77 182 0.9 2.6 0.00 0.00 0.00 76 1017.7
20260905221447 78 78 1.7 2.6 0.00 0.00 0.00 76 1017.7
20260905220943 78 27 0.9 1.7 0.00 0.00 0.00 74 1017.6
20260905220439 78 139 0.9 0.9 0.00 0.00 0.00 76 1017.8
20260905215938 77 333 0.9 1.7 0.00 0.00 0.00 78 1017.6
20260905215433 78 272 3.5 5.2 0.00 0.00 0.00 75 1017.6
20260905214930 78 329 0.9 1.7 0.00 0.00 0.00 75 1017.8
20260905214425 78 187 0.9 0.9 0.00 0.00 0.00 76 1017.5
20260905213920 77 33 1.7 2.6 0.00 0.00 0.00 77 1017.6
20260905213416 77 342 0.9 2.6 0.00 0.00 0.00 77 1017.7
20260905212912 77 71 1.7 2.6 0.00 0.00 0.00 79 1017.6
20260905212407 76 12 1.7 2.6 0.00 0.00 0.00 80 1017.7
20260905211905 75 62 1.7 1.7 0.00 0.00 0.00 81 1017.9
20260905211401 76 158 0.9 1.7 0.00 0.00 0.00 82 1017.7
20260905210857 76 49 1.7 2.6 0.00 0.00 0.00 81 1017.9
20260905210357 75 116 0.9 0.9 0.00 0.00 0.00 83 1017.9
20260905205856 75 91 1.7 2.6 0.00 0.00 0.00 83 1018.2
20260905205351 75 5 2.6 3.5 0.00 0.00 0.00 83 1018.0
20260905204850 75 48 1.7 3.5 0.00 0.00 0.00 84 1018.0
20260905204346 76 352 3.5 3.5 0.00 0.00 0.00 83 1018.1
20260905203844 75 80 1.7 1.7 0.00 0.00 0.00 84 1018.0
20260905203341 75 71 1.7 1.7 0.00 0.00 0.00 84 1017.9
20260905202836 75 8 1.7 3.5 0.00 0.00 0.00 84 1018.1
20260905202331 76 159 1.7 2.6 0.00 0.00 0.00 85 1018.1
20260905201822 75 154 0.0 1.7 0.00 0.00 0.00 86 1018.1
20260905201317 74 144 0.9 2.6 0.00 0.00 0.00 85 1018.1
20260905200816 75 98 1.7 2.6 0.00 0.00 0.00 85 1018.2
20260905200312 75 154 0.9 2.6 0.00 0.00 0.00 84 1018.2
20260905195810 75 155 0.0 0.9 0.00 0.00 0.00 84 1018.1
20260905195306 74 66 0.9 1.7 0.00 0.00 0.00 85 1018.4
20260905194802 75 97 1.7 2.6 0.00 0.00 0.00 85 1018.0
20260905194301 75 121 0.9 1.7 0.00 0.00 0.00 85 1017.9
20260905193800 75 81 0.9 2.6 0.00 0.00 0.00 83 1017.9
20260905193255 76 154 0.9 0.9 0.00 0.00 0.00 84 1018.2
20260905192750 75 155 0.0 0.9 0.00 0.00 0.00 84 1017.9
20260905192247 75 155 0.0 0.9 0.00 0.00 0.00 84 1018.1
20260905191746 74 110 1.7 2.6 0.00 0.00 0.00 84 1017.7
20260905191244 74 147 0.9 2.6 0.00 0.00 0.00 86 1018.1
20260905190743 75 129 1.7 1.7 0.00 0.00 0.00 84 1018.2
20260905190243 75 213 0.9 0.9 0.00 0.00 0.00 83 1018.3
20260905185741 75 184 0.9 1.7 0.00 0.00 0.00 84 1018.1
20260905185236 75 157 0.9 0.9 0.00 0.00 0.00 83 1018.2
20260905184730 75 105 0.9 1.7 0.00 0.00 0.00 84 1018.0
20260905184230 74 150 0.0 0.9 0.00 0.00 0.00 85 1018.3
20260905183723 74 183 0.9 1.7 0.00 0.00 0.00 85 1018.2
20260905183219 75 148 0.0 3.5 0.00 0.00 0.00 85 1018.3
20260905182718 75 154 0.0 1.7 0.00 0.00 0.00 84 1018.0
20260905182218 74 138 0.9 1.7 0.00 0.00 0.00 85 1018.1
20260905181714 74 151 0.9 1.7 0.00 0.00 0.00 85 1017.9
20260905181212 74 149 0.9 2.6 0.00 0.00 0.00 86 1018.2
20260905180707 74 159 0.9 1.7 0.00 0.00 0.00 85 1018.3
20260905180203 74 150 0.9 2.6 0.00 0.00 0.00 86 1018.3
20260905175702 74 160 0.0 0.9 0.00 0.00 0.00 86 1018.5
20260905175157 74 48 0.9 0.9 0.00 0.00 0.00 86 1018.3
20260905174653 74 82 1.7 1.7 0.00 0.00 0.00 87 1018.2
20260905174148 73 50 3.5 5.2 0.00 0.00 0.00 87 1018.3
20260905173644 72 183 0.9 0.9 0.00 0.00 0.00 89 1018.2